ELECTRON KICK STAGE R/B (44496 NORAD) Tracking and Keplerian Element Data

This shows tracking and keplerian element data for the satellite.

Feedback or suggestion? Click here.




ElementValue
Catalog44496
NameELECTRON KICK STAGE R/B
Epoch Orbit409
Epoch Day258.66551315
Epoch Year2019
RAAN311.7246
Inclination45.0168
Eccentricity0.0006959
Argument of Perigee63.3207
Mean Anonmoly79.6495
Mean Motion15.07323681
Decay Rate1.64E-06
L11 44496U 19054B 19258.66551315 .00000164 00000-0 26576-4 0 9994
L22 44496 45.0168 311.7246 0006959 63.3207 79.6495 15.07323681 4096



Live tracking and technical data element details for ELECTRON KICK STAGE R/B (NORAD 44496). ELECTRON KICK STAGE R/B can be tracked NOW for your location showing map with azimuth and elevation plus other details from your city location.







IsCatalogInMostPopularTable: catalog: 44496, numindb: 202
Update: records affected: 1



GetName: 44496 ELECTRON KICK STAGE R/B

Hit Count: updated at: Sun, 28 May 2023 19:46:47 GMT